| time (UTC) | temp F | wind direction | speed knots | gust knots | rain 1hr in | rain 24hr in | rain mn in | humidity % | barometer mb |
| 20260508193559 | 60 | 128 | 0.9 | 5.2 | 0.00 | 0.00 | 0.00 | 66 | 1016.6 |
| 20260508193058 | 60 | 118 | 1.7 | 5.2 | 0.00 | 0.00 | 0.00 | 65 | 1016.5 |
| 20260508192559 | 60 | 126 | 0.9 | 3.5 | 0.00 | 0.00 | 0.00 | 65 | 1016.5 |
| 20260508192059 | 60 | 0 | 0.0 | 3.5 | 0.00 | 0.00 | 0.00 | 64 | 1016.4 |
| 20260508191559 | 61 | 151 | 0.9 | 2.6 | 0.00 | 0.00 | 0.00 | 64 | 1016.3 |
| 20260508191058 | 61 | 155 | 0.9 | 3.5 | 0.00 | 0.00 | 0.00 | 64 | 1016.2 |
| 20260508190600 | 61 | 140 | 0.9 | 3.5 | 0.00 | 0.00 | 0.00 | 63 | 1016.2 |
| 20260508190105 | 62 | 152 | 0.9 | 3.5 | 0.00 | 0.00 | 0.00 | 63 | 1016.2 |
| 20260508185558 | 62 | 0 | 0.0 | 3.5 | 0.00 | 0.00 | 0.00 | 62 | 1016.1 |
| 20260508185058 | 62 | 0 | 0.0 | 4.3 | 0.00 | 0.00 | 0.00 | 62 | 1016.1 |
| 20260508184558 | 63 | 191 | 1.7 | 4.3 | 0.00 | 0.00 | 0.00 | 62 | 1016.1 |
| 20260508184100 | 63 | 127 | 0.9 | 4.3 | 0.00 | 0.00 | 0.00 | 63 | 1016.0 |
| 20260508183559 | 63 | 155 | 1.7 | 4.3 | 0.00 | 0.00 | 0.00 | 62 | 1016.0 |
| 20260508183105 | 63 | 182 | 1.7 | 5.2 | 0.00 | 0.00 | 0.00 | 62 | 1015.9 |
| 20260508182559 | 63 | 175 | 1.7 | 5.2 | 0.00 | 0.00 | 0.00 | 60 | 1015.9 |
| 20260508182058 | 63 | 171 | 1.7 | 3.5 | 0.00 | 0.00 | 0.00 | 61 | 1015.9 |
| 20260508181613 | 64 | 193 | 2.6 | 3.5 | 0.00 | 0.00 | 0.00 | 61 | 1015.8 |
| 20260508181100 | 64 | 211 | 0.9 | 7.8 | 0.00 | 0.00 | 0.00 | 58 | 1015.7 |
| 20260508180602 | 64 | 194 | 1.7 | 7.8 | 0.00 | 0.00 | 0.00 | 59 | 1015.7 |
| 20260508180115 | 64 | 177 | 1.7 | 5.2 | 0.00 | 0.00 | 0.00 | 56 | 1015.5 |
| 20260508175559 | 65 | 197 | 2.6 | 5.2 | 0.00 | 0.00 | 0.00 | 57 | 1015.6 |
| 20260508175058 | 65 | 228 | 2.6 | 7.0 | 0.00 | 0.00 | 0.00 | 55 | 1015.5 |
| 20260508174607 | 65 | 210 | 3.5 | 7.8 | 0.00 | 0.00 | 0.00 | 54 | 1015.3 |
| 20260508174101 | 65 | 184 | 3.5 | 7.8 | 0.00 | 0.00 | 0.00 | 55 | 1015.3 |
| 20260508173559 | 65 | 181 | 3.5 | 7.0 | 0.00 | 0.00 | 0.00 | 53 | 1015.3 |
| 20260508173058 | 66 | 178 | 2.6 | 7.0 | 0.00 | 0.00 | 0.00 | 54 | 1015.3 |
| 20260508172559 | 66 | 209 | 1.7 | 7.0 | 0.00 | 0.00 | 0.00 | 51 | 1015.2 |
| 20260508172059 | 66 | 175 | 2.6 | 7.0 | 0.00 | 0.00 | 0.00 | 54 | 1015.2 |
| 20260508171557 | 66 | 184 | 4.3 | 7.0 | 0.00 | 0.00 | 0.00 | 51 | 1015.2 |
| 20260508171059 | 67 | 188 | 3.5 | 8.7 | 0.00 | 0.00 | 0.00 | 54 | 1015.1 |
| 20260508170559 | 67 | 203 | 4.3 | 9.6 | 0.00 | 0.00 | 0.00 | 49 | 1015.2 |
| 20260508170058 | 67 | 192 | 4.3 | 10.4 | 0.00 | 0.00 | 0.00 | 48 | 1015.1 |
| 20260508165558 | 67 | 185 | 5.2 | 10.4 | 0.00 | 0.00 | 0.00 | 51 | 1015.1 |
| 20260508165059 | 67 | 178 | 4.3 | 9.6 | 0.00 | 0.00 | 0.00 | 52 | 1015.0 |
| 20260508164558 | 67 | 178 | 3.5 | 8.7 | 0.00 | 0.00 | 0.00 | 50 | 1015.1 |
| 20260508164059 | 67 | 169 | 3.5 | 9.6 | 0.00 | 0.00 | 0.00 | 50 | 1015.0 |
| 20260508163602 | 67 | 203 | 2.6 | 9.6 | 0.00 | 0.00 | 0.00 | 50 | 1015.1 |
| 20260508163057 | 68 | 192 | 4.3 | 9.6 | 0.00 | 0.00 | 0.00 | 49 | 1014.9 |
| 20260508162558 | 68 | 210 | 4.3 | 9.6 | 0.00 | 0.00 | 0.00 | 49 | 1015.0 |
| 20260508162059 | 68 | 190 | 3.5 | 10.4 | 0.00 | 0.00 | 0.00 | 51 | 1014.9 |
| 20260508161602 | 68 | 162 | 3.5 | 10.4 | 0.00 | 0.00 | 0.00 | 52 | 1014.9 |
| 20260508161058 | 67 | 186 | 3.5 | 8.7 | 0.00 | 0.00 | 0.00 | 49 | 1014.9 |
| 20260508160559 | 67 | 192 | 4.3 | 13.0 | 0.00 | 0.00 | 0.00 | 50 | 1015.0 |
| 20260508160057 | 67 | 191 | 3.5 | 13.0 | 0.00 | 0.00 | 0.00 | 51 | 1015.0 |
| 20260508155558 | 67 | 185 | 5.2 | 13.0 | 0.00 | 0.00 | 0.00 | 48 | 1015.0 |
| 20260508155058 | 67 | 173 | 6.1 | 12.2 | 0.00 | 0.00 | 0.00 | 48 | 1015.1 |
| 20260508154558 | 67 | 197 | 5.2 | 10.4 | 0.00 | 0.00 | 0.00 | 50 | 1015.1 |
| 20260508154104 | 68 | 195 | 4.3 | 10.4 | 0.00 | 0.00 | 0.00 | 50 | 1015.0 |
| 20260508153559 | 68 | 192 | 4.3 | 10.4 | 0.00 | 0.00 | 0.00 | 50 | 1015.1 |
| 20260508153100 | 69 | 202 | 5.2 | 13.0 | 0.00 | 0.00 | 0.00 | 49 | 1015.0 |
| 20260508152603 | 69 | 142 | 3.5 | 13.9 | 0.00 | 0.00 | 0.00 | 49 | 1015.0 |
| 20260508152058 | 69 | 182 | 3.5 | 13.9 | 0.00 | 0.00 | 0.00 | 47 | 1015.2 |
| 20260508151606 | 69 | 217 | 5.2 | 13.0 | 0.00 | 0.00 | 0.00 | 48 | 1015.2 |
| 20260508151059 | 68 | 161 | 4.3 | 13.0 | 0.00 | 0.00 | 0.00 | 51 | 1015.3 |
| 20260508150558 | 69 | 186 | 5.2 | 13.0 | 0.00 | 0.00 | 0.00 | 46 | 1015.1 |
| 20260508150058 | 69 | 157 | 5.2 | 13.0 | 0.00 | 0.00 | 0.00 | 49 | 1015.2 |
| 20260508145558 | 69 | 177 | 6.1 | 12.2 | 0.00 | 0.00 | 0.00 | 49 | 1015.2 |
| 20260508145058 | 69 | 229 | 5.2 | 13.0 | 0.00 | 0.00 | 0.00 | 51 | 1015.3 |
| 20260508144600 | 69 | 158 | 6.1 | 13.0 | 0.00 | 0.00 | 0.00 | 50 | 1015.3 |
| 20260508144058 | 69 | 185 | 5.2 | 11.3 | 0.00 | 0.00 | 0.00 | 51 | 1015.3 |
| 20260508143558 | 68 | 180 | 3.5 | 12.2 | 0.00 | 0.00 | 0.00 | 53 | 1015.2 |
| 20260508143100 | 68 | 217 | 6.1 | 12.2 | 0.00 | 0.00 | 0.00 | 52 | 1015.2 |
| 20260508142558 | 68 | 217 | 7.0 | 12.2 | 0.00 | 0.00 | 0.00 | 50 | 1015.2 |
| 20260508142059 | 68 | 205 | 3.5 | 10.4 | 0.00 | 0.00 | 0.00 | 54 | 1015.3 |
| 20260508141613 | 67 | 127 | 2.6 | 9.6 | 0.00 | 0.00 | 0.00 | 54 | 1015.2 |
| 20260508141059 | 67 | 197 | 4.3 | 13.0 | 0.00 | 0.00 | 0.00 | 54 | 1015.2 |
| 20260508140603 | 68 | 213 | 5.2 | 13.0 | 0.00 | 0.00 | 0.00 | 53 | 1015.2 |
| 20260508140114 | 68 | 151 | 6.1 | 11.3 | 0.00 | 0.00 | 0.00 | 54 | 1015.1 |
| 20260508135601 | 68 | 206 | 4.3 | 11.3 | 0.00 | 0.00 | 0.00 | 55 | 1015.2 |
| 20260508135059 | 68 | 201 | 5.2 | 11.3 | 0.00 | 0.00 | 0.00 | 53 | 1015.1 |
| 20260508134559 | 68 | 192 | 4.3 | 10.4 | 0.00 | 0.00 | 0.00 | 54 | 1015.1 |
| 20260508134058 | 68 | 159 | 4.3 | 10.4 | 0.00 | 0.00 | 0.00 | 55 | 1015.1 |
| 20260508133558 | 68 | 157 | 4.3 | 7.8 | 0.00 | 0.00 | 0.00 | 54 | 1015.0 |
| 20260508133103 | 68 | 180 | 2.6 | 10.4 | 0.00 | 0.00 | 0.00 | 51 | 1015.0 |
| 20260508132558 | 68 | 141 | 1.7 | 13.9 | 0.00 | 0.00 | 0.00 | 58 | 1015.0 |
| 20260508132058 | 68 | 163 | 4.3 | 13.9 | 0.00 | 0.00 | 0.00 | 52 | 1015.0 |
| 20260508131606 | 68 | 163 | 4.3 | 12.2 | 0.00 | 0.00 | 0.00 | 55 | 1015.0 |
| 20260508131059 | 67 | 148 | 4.3 | 12.2 | 0.00 | 0.00 | 0.00 | 58 | 1015.0 |
| 20260508130602 | 66 | 226 | 3.5 | 9.6 | 0.00 | 0.00 | 0.00 | 58 | 1015.2 |
| 20260508130058 | 66 | 198 | 4.3 | 11.3 | 0.00 | 0.00 | 0.00 | 59 | 1015.2 |
| 20260508125559 | 66 | 203 | 4.3 | 13.0 | 0.00 | 0.00 | 0.00 | 58 | 1015.2 |
| 20260508125059 | 66 | 181 | 5.2 | 13.9 | 0.00 | 0.00 | 0.00 | 57 | 1015.3 |
| 20260508124558 | 67 | 139 | 6.1 | 13.9 | 0.00 | 0.00 | 0.00 | 54 | 1015.2 |
| 20260508124058 | 67 | 117 | 4.3 | 12.2 | 0.00 | 0.00 | 0.00 | 58 | 1015.1 |
| 20260508123559 | 67 | 209 | 6.1 | 12.2 | 0.00 | 0.00 | 0.00 | 60 | 1015.2 |
| 20260508123058 | 67 | 178 | 6.1 | 15.6 | 0.00 | 0.00 | 0.00 | 57 | 1015.3 |
| 20260508122558 | 67 | 171 | 6.1 | 15.6 | 0.00 | 0.00 | 0.00 | 61 | 1015.2 |
| 20260508122059 | 66 | 194 | 5.2 | 15.6 | 0.00 | 0.00 | 0.00 | 59 | 1015.2 |
| 20260508121607 | 66 | 163 | 6.1 | 11.3 | 0.00 | 0.00 | 0.00 | 54 | 1015.1 |
| 20260508121102 | 66 | 157 | 5.2 | 9.6 | 0.00 | 0.00 | 0.00 | 57 | 1015.1 |
| 20260508120559 | 66 | 185 | 1.7 | 8.7 | 0.00 | 0.00 | 0.00 | 61 | 1015.2 |
| 20260508115559 | 65 | 192 | 4.3 | 8.7 | 0.00 | 0.00 | 0.00 | 67 | 1015.1 |
| 20260508115058 | 64 | 127 | 3.5 | 8.7 | 0.00 | 0.00 | 0.00 | 63 | 1015.1 |
| 20260508114559 | 64 | 130 | 1.7 | 7.0 | 0.00 | 0.00 | 0.00 | 64 | 1015.1 |
| 20260508114058 | 64 | 151 | 2.6 | 7.0 | 0.00 | 0.00 | 0.00 | 67 | 1015.2 |
| 20260508113559 | 64 | 94 | 1.7 | 11.3 | 0.00 | 0.00 | 0.00 | 65 | 1015.2 |
| 20260508113114 | 63 | 124 | 2.6 | 11.3 | 0.00 | 0.00 | 0.00 | 66 | 1015.2 |
| 20260508112600 | 63 | 181 | 3.5 | 7.8 | 0.00 | 0.00 | 0.00 | 69 | 1015.3 |
| 20260508112058 | 63 | 118 | 3.5 | 7.8 | 0.00 | 0.00 | 0.00 | 69 | 1015.3 |
| 20260508111607 | 62 | 200 | 1.7 | 8.7 | 0.00 | 0.00 | 0.00 | 70 | 1015.3 |
| 20260508111058 | 63 | 185 | 3.5 | 8.7 | 0.00 | 0.00 | 0.00 | 68 | 1015.3 |
| 20260508110558 | 63 | 143 | 1.7 | 8.7 | 0.00 | 0.00 | 0.00 | 70 | 1015.4 |
| 20260508110105 | 62 | 182 | 1.7 | 8.7 | 0.00 | 0.00 | 0.00 | 71 | 1015.2 |
| 20260508105558 | 62 | 120 | 4.3 | 8.7 | 0.00 | 0.00 | 0.00 | 70 | 1015.3 |
| 20260508105058 | 61 | 173 | 3.5 | 7.8 | 0.00 | 0.00 | 0.00 | 70 | 1015.3 |
| 20260508104603 | 61 | 0 | 2.6 | 7.8 | 0.00 | 0.00 | 0.00 | 70 | 1015.2 |
| 20260508104101 | 62 | 161 | 2.6 | 10.4 | 0.00 | 0.00 | 0.00 | 71 | 1015.3 |
| 20260508103559 | 61 | 134 | 5.2 | 10.4 | 0.00 | 0.00 | 0.00 | 71 | 1015.4 |
| 20260508103141 | 60 | 144 | 2.6 | 9.6 | 0.00 | 0.00 | 0.00 | 75 | 1015.3 |
| 20260508102558 | 61 | 46 | 4.3 | 9.6 | 0.00 | 0.00 | 0.00 | 71 | 1015.3 |
| 20260508102059 | 61 | 70 | 1.7 | 9.6 | 0.00 | 0.00 | 0.00 | 76 | 1015.4 |
| 20260508101627 | 59 | 83 | 3.5 | 7.0 | 0.00 | 0.00 | 0.00 | 74 | 1015.5 |
| 20260508101059 | 59 | 114 | 0.9 | 3.5 | 0.00 | 0.00 | 0.00 | 75 | 1015.5 |
| 20260508100558 | 59 | 46 | 0.9 | 6.1 | 0.00 | 0.00 | 0.00 | 74 | 1015.5 |
| 20260508100109 | 59 | 123 | 1.7 | 7.0 | 0.00 | 0.00 | 0.00 | 76 | 1015.4 |
| 20260508095601 | 59 | 157 | 3.5 | 7.0 | 0.00 | 0.00 | 0.00 | 73 | 1015.5 |
| 20260508095058 | 60 | 58 | 3.5 | 6.1 | 0.00 | 0.00 | 0.00 | 74 | 1015.3 |
| 20260508094617 | 59 | 103 | 1.7 | 6.1 | 0.00 | 0.00 | 0.00 | 78 | 1015.3 |
| 20260508094058 | 58 | 114 | 0.9 | 6.1 | 0.00 | 0.00 | 0.00 | 81 | 1015.5 |
| 20260508093558 | 57 | 79 | 1.7 | 6.1 | 0.00 | 0.00 | 0.00 | 79 | 1015.5 |
| 20260508093101 | 56 | 87 | 0.9 | 6.1 | 0.00 | 0.00 | 0.00 | 79 | 1015.5 |
| 20260508092559 | 57 | 86 | 1.7 | 6.1 | 0.00 | 0.00 | 0.00 | 78 | 1015.6 |
| 20260508092101 | 57 | 96 | 0.9 | 6.1 | 0.00 | 0.00 | 0.00 | 79 | 1015.6 |
| 20260508091557 | 57 | 98 | 2.6 | 6.1 | 0.00 | 0.00 | 0.00 | 78 | 1015.5 |
| 20260508091059 | 56 | 98 | 1.7 | 3.5 | 0.00 | 0.00 | 0.00 | 80 | 1015.6 |
| 20260508090559 | 56 | 80 | 0.0 | 3.5 | 0.00 | 0.00 | 0.00 | 80 | 1015.5 |
| 20260508090110 | 56 | 157 | 0.9 | 6.1 | 0.00 | 0.00 | 0.00 | 80 | 1015.6 |
| 20260508085558 | 56 | 155 | 1.7 | 6.1 | 0.00 | 0.00 | 0.00 | 80 | 1015.6 |
| 20260508085058 | 56 | 128 | 0.9 | 5.2 | 0.00 | 0.00 | 0.00 | 80 | 1015.5 |
| 20260508084611 | 56 | 183 | 0.9 | 4.3 | 0.00 | 0.00 | 0.00 | 81 | 1015.5 |
| 20260508084059 | 56 | 130 | 0.0 | 4.3 | 0.00 | 0.00 | 0.00 | 81 | 1015.6 |
| 20260508083601 | 55 | 162 | 0.9 | 6.1 | 0.00 | 0.00 | 0.00 | 80 | 1015.6 |
| 20260508083123 | 55 | 0 | 0.9 | 7.0 | 0.00 | 0.00 | 0.00 | 80 | 1015.5 |
| 20260508082558 | 55 | 109 | 2.6 | 7.0 | 0.00 | 0.00 | 0.00 | 80 | 1015.6 |
| 20260508082058 | 56 | 122 | 2.6 | 7.8 | 0.00 | 0.00 | 0.00 | 79 | 1015.6 |
| 20260508081559 | 56 | 98 | 2.6 | 7.8 | 0.00 | 0.00 | 0.00 | 78 | 1015.6 |
| 20260508081058 | 56 | 72 | 2.6 | 7.8 | 0.00 | 0.00 | 0.00 | 79 | 1015.6 |
| 20260508080601 | 56 | 142 | 1.7 | 7.8 | 0.00 | 0.00 | 0.00 | 79 | 1015.6 |
| 20260508080059 | 56 | 175 | 0.9 | 6.1 | 0.00 | 0.00 | 0.00 | 80 | 1015.4 |
| 20260508075559 | 56 | 155 | 1.7 | 6.1 | 0.00 | 0.00 | 0.00 | 77 | 1015.5 |
| 20260508075058 | 56 | 101 | 2.6 | 6.1 | 0.00 | 0.00 | 0.00 | 76 | 1015.4 |
| 20260508074600 | 57 | 142 | 1.7 | 7.0 | 0.00 | 0.00 | 0.00 | 76 | 1015.3 |
| 20260508074058 | 57 | 141 | 1.7 | 7.0 | 0.00 | 0.00 | 0.00 | 75 | 1015.2 |
| 20260508073558 | 57 | 93 | 3.5 | 7.0 | 0.00 | 0.00 | 0.00 | 75 | 1015.2 |
| 20260508073103 | 57 | 51 | 1.7 | 7.0 | 0.00 | 0.00 | 0.00 | 74 | 1015.1 |
| 20260508072558 | 56 | 107 | 2.6 | 7.0 | 0.00 | 0.00 | 0.00 | 75 | 1015.0 |
| 20260508072058 | 56 | 94 | 2.6 | 6.1 | 0.00 | 0.00 | 0.00 | 77 | 1015.0 |
| 20260508071559 | 55 | 80 | 2.6 | 4.3 | 0.00 | 0.00 | 0.00 | 78 | 1015.0 |
| 20260508071058 | 55 | 67 | 0.9 | 3.5 | 0.00 | 0.00 | 0.00 | 78 | 1015.0 |
| 20260508070558 | 55 | 80 | 0.9 | 3.5 | 0.00 | 0.00 | 0.00 | 78 | 1015.1 |
| 20260508070101 | 54 | 32 | 0.9 | 2.6 | 0.00 | 0.00 | 0.00 | 80 | 1015.2 |
| 20260508065600 | 53 | 0 | 0.0 | 0.0 | 0.00 | 0.00 | 0.00 | 86 | 1015.1 |
| 20260508065059 | 52 | 0 | 0.0 | 0.0 | 0.00 | 0.00 | 0.00 | 86 | 1015.1 |
| 20260508064615 | 52 | 0 | 0.0 | 0.0 | 0.00 | 0.00 | 0.00 | 85 | 1015.2 |
| 20260508064059 | 52 | 0 | 0.0 | 0.0 | 0.00 | 0.00 | 0.00 | 86 | 1015.2 |
| 20260508063559 | 52 | 0 | 0.0 | 2.6 | 0.00 | 0.00 | 0.00 | 85 | 1015.2 |
| 20260508063103 | 52 | 0 | 0.0 | 2.6 | 0.00 | 0.00 | 0.00 | 83 | 1015.2 |
| 20260508062558 | 52 | 0 | 0.0 | 4.3 | 0.00 | 0.00 | 0.00 | 81 | 1015.1 |
| 20260508062058 | 52 | 0 | 0.0 | 4.3 | 0.00 | 0.00 | 0.00 | 81 | 1015.1 |
| 20260508061600 | 51 | 82 | 1.7 | 3.5 | 0.00 | 0.00 | 0.00 | 81 | 1015.0 |
| 20260508061101 | 51 | 67 | 0.9 | 3.5 | 0.00 | 0.00 | 0.00 | 82 | 1015.0 |
| 20260508060559 | 51 | 69 | 0.9 | 4.3 | 0.00 | 0.00 | 0.00 | 82 | 1015.0 |
| 20260508060057 | 51 | 69 | 1.7 | 5.2 | 0.00 | 0.00 | 0.00 | 82 | 1015.0 |
| 20260508055601 | 51 | 74 | 1.7 | 5.2 | 0.00 | 0.00 | 0.00 | 83 | 1015.0 |
| 20260508055058 | 51 | 92 | 1.7 | 5.2 | 0.00 | 0.00 | 0.00 | 83 | 1014.9 |
| 20260508054605 | 51 | 83 | 2.6 | 6.1 | 0.00 | 0.00 | 0.00 | 84 | 1014.7 |
| 20260508054059 | 50 | 101 | 1.7 | 6.1 | 0.00 | 0.00 | 0.00 | 84 | 1014.9 |
| 20260508053558 | 50 | 82 | 2.6 | 5.2 | 0.00 | 0.00 | 0.00 | 85 | 1014.6 |
| 20260508053102 | 50 | 102 | 1.7 | 7.0 | 0.00 | 0.00 | 0.00 | 85 | 1014.7 |
| 20260508052600 | 50 | 62 | 2.6 | 7.0 | 0.00 | 0.00 | 0.00 | 85 | 1014.7 |
| 20260508052058 | 50 | 84 | 3.5 | 7.0 | 0.00 | 0.00 | 0.00 | 84 | 1014.5 |
| 20260508051602 | 50 | 73 | 3.5 | 7.0 | 0.00 | 0.00 | 0.00 | 84 | 1014.5 |
| 20260508051059 | 50 | 64 | 3.5 | 6.1 | 0.00 | 0.00 | 0.00 | 84 | 1014.5 |
| 20260508050559 | 50 | 50 | 2.6 | 6.1 | 0.00 | 0.00 | 0.00 | 84 | 1014.6 |
| 20260508045558 | 50 | 94 | 1.7 | 5.2 | 0.00 | 0.00 | 0.00 | 84 | 1014.7 |
| 20260508045058 | 50 | 88 | 1.7 | 5.2 | 0.00 | 0.00 | 0.00 | 84 | 1014.7 |
| 20260508044602 | 50 | 80 | 1.7 | 6.1 | 0.00 | 0.00 | 0.00 | 84 | 1014.7 |
| 20260508044100 | 50 | 78 | 1.7 | 6.1 | 0.00 | 0.00 | 0.00 | 83 | 1014.8 |
| 20260508043558 | 50 | 53 | 1.7 | 6.1 | 0.00 | 0.00 | 0.00 | 83 | 1014.7 |
| 20260508043104 | 50 | 0 | 1.7 | 3.5 | 0.00 | 0.00 | 0.00 | 82 | 1014.9 |
| 20260508042558 | 50 | 0 | 0.0 | 3.5 | 0.00 | 0.00 | 0.00 | 82 | 1014.9 |
| 20260508042101 | 51 | 72 | 0.9 | 7.0 | 0.00 | 0.00 | 0.00 | 81 | 1014.9 |
| 20260508041602 | 51 | 94 | 1.7 | 7.0 | 0.00 | 0.00 | 0.00 | 81 | 1014.8 |
| 20260508041058 | 51 | 130 | 2.6 | 7.8 | 0.00 | 0.00 | 0.00 | 80 | 1014.7 |
| 20260508040558 | 51 | 57 | 3.5 | 7.8 | 0.00 | 0.00 | 0.00 | 79 | 1014.7 |
| 20260508040104 | 51 | 109 | 2.6 | 7.0 | 0.00 | 0.00 | 0.00 | 77 | 1014.7 |
| 20260508035559 | 51 | 96 | 1.7 | 7.0 | 0.00 | 0.00 | 0.00 | 77 | 1014.8 |
| 20260508035059 | 51 | 132 | 2.6 | 7.0 | 0.00 | 0.00 | 0.00 | 77 | 1014.9 |
| 20260508034604 | 51 | 71 | 1.7 | 7.0 | 0.00 | 0.00 | 0.00 | 77 | 1014.9 |
| 20260508034058 | 51 | 69 | 2.6 | 7.0 | 0.00 | 0.00 | 0.00 | 77 | 1014.9 |
| 20260508033558 | 51 | 97 | 2.6 | 7.8 | 0.00 | 0.00 | 0.00 | 77 | 1015.0 |
| 20260508033058 | 51 | 82 | 1.7 | 7.8 | 0.00 | 0.00 | 0.00 | 77 | 1014.8 |
| 20260508032559 | 51 | 100 | 1.7 | 6.1 | 0.00 | 0.00 | 0.00 | 76 | 1014.9 |
| 20260508032101 | 51 | 88 | 2.6 | 6.1 | 0.00 | 0.00 | 0.00 | 76 | 1014.8 |
| 20260508031559 | 51 | 89 | 1.7 | 6.1 | 0.00 | 0.00 | 0.00 | 76 | 1014.9 |
| 20260508031101 | 51 | 110 | 2.6 | 6.1 | 0.00 | 0.00 | 0.00 | 76 | 1014.9 |
| 20260508030558 | 51 | 0 | 1.7 | 6.1 | 0.00 | 0.00 | 0.00 | 76 | 1015.0 |
| 20260508030116 | 51 | 99 | 1.7 | 6.1 | 0.00 | 0.00 | 0.00 | 76 | 1015.0 |
| 20260508025557 | 51 | 77 | 1.7 | 5.2 | 0.00 | 0.00 | 0.00 | 76 | 1015.0 |
| 20260508025058 | 51 | 92 | 0.9 | 5.2 | 0.00 | 0.00 | 0.00 | 76 | 1015.1 |
| 20260508024558 | 51 | 68 | 1.7 | 5.2 | 0.00 | 0.00 | 0.00 | 76 | 1015.0 |
| 20260508024059 | 51 | 126 | 1.7 | 5.2 | 0.00 | 0.00 | 0.00 | 77 | 1015.1 |
| 20260508023559 | 51 | 124 | 1.7 | 5.2 | 0.00 | 0.00 | 0.00 | 76 | 1015.1 |
| 20260508023104 | 51 | 109 | 1.7 | 5.2 | 0.00 | 0.00 | 0.00 | 77 | 1015.1 |
| 20260508022558 | 51 | 102 | 0.9 | 3.5 | 0.00 | 0.00 | 0.00 | 77 | 1015.0 |
| 20260508022059 | 51 | 74 | 1.7 | 4.3 | 0.00 | 0.00 | 0.00 | 77 | 1015.1 |
| 20260508021601 | 51 | 79 | 1.7 | 4.3 | 0.00 | 0.00 | 0.00 | 77 | 1015.1 |
| 20260508021101 | 51 | 76 | 0.9 | 3.5 | 0.00 | 0.00 | 0.00 | 77 | 1015.0 |
| 20260508020558 | 51 | 105 | 0.9 | 3.5 | 0.00 | 0.00 | 0.00 | 76 | 1015.1 |
| 20260508020058 | 51 | 0 | 0.0 | 5.2 | 0.00 | 0.00 | 0.00 | 76 | 1015.0 |
| 20260508015558 | 51 | 112 | 0.9 | 5.2 | 0.00 | 0.00 | 0.00 | 75 | 1015.1 |
| 20260508015058 | 51 | 0 | 0.9 | 5.2 | 0.00 | 0.00 | 0.00 | 75 | 1015.0 |
| 20260508014600 | 51 | 140 | 0.9 | 7.0 | 0.00 | 0.00 | 0.00 | 75 | 1014.9 |
| 20260508014100 | 52 | 88 | 1.7 | 7.0 | 0.00 | 0.00 | 0.00 | 76 | 1015.0 |
| 20260508013601 | 52 | 105 | 1.7 | 6.1 | 0.00 | 0.00 | 0.00 | 75 | 1015.0 |
| 20260508013059 | 52 | 106 | 1.7 | 5.2 | 0.00 | 0.00 | 0.00 | 75 | 1015.0 |
| 20260508012559 | 52 | 83 | 0.9 | 3.5 | 0.00 | 0.00 | 0.00 | 75 | 1015.1 |
| 20260508012059 | 52 | 107 | 0.9 | 3.5 | 0.00 | 0.00 | 0.00 | 75 | 1015.2 |
| 20260508011557 | 52 | 93 | 0.9 | 4.3 | 0.00 | 0.00 | 0.00 | 74 | 1015.2 |
| 20260508011058 | 52 | 118 | 0.9 | 4.3 | 0.00 | 0.00 | 0.00 | 74 | 1015.2 |
| 20260508010602 | 52 | 99 | 0.9 | 7.0 | 0.00 | 0.00 | 0.00 | 74 | 1015.2 |
| 20260508010057 | 52 | 165 | 0.9 | 7.0 | 0.00 | 0.00 | 0.00 | 74 | 1015.1 |
| 20260508005559 | 52 | 80 | 1.7 | 5.2 | 0.00 | 0.00 | 0.00 | 73 | 1015.2 |
| 20260508005059 | 52 | 99 | 0.9 | 4.3 | 0.00 | 0.00 | 0.00 | 73 | 1015.2 |
| 20260508004602 | 52 | 129 | 0.9 | 4.3 | 0.00 | 0.00 | 0.00 | 73 | 1015.2 |
| 20260508004059 | 52 | 95 | 0.9 | 6.1 | 0.00 | 0.00 | 0.00 | 73 | 1015.2 |
| 20260508003559 | 52 | 101 | 0.9 | 6.1 | 0.00 | 0.00 | 0.00 | 72 | 1015.4 |
| 20260508003108 | 52 | 106 | 1.7 | 6.1 | 0.00 | 0.00 | 0.00 | 72 | 1015.3 |
| 20260508002559 | 52 | 83 | 0.0 | 2.6 | 0.00 | 0.00 | 0.00 | 72 | 1015.3 |
| 20260508002059 | 52 | 150 | 0.0 | 3.5 | 0.00 | 0.00 | 0.00 | 71 | 1015.4 |
| 20260508001600 | 52 | 0 | 0.0 | 6.1 | 0.00 | 0.00 | 0.00 | 71 | 1015.3 |
| 20260508001058 | 52 | 161 | 1.7 | 6.1 | 0.00 | 0.00 | 0.00 | 71 | 1015.4 |
| 20260508000559 | 52 | 0 | 0.9 | 2.6 | 0.00 | 0.00 | 0.00 | 70 | 1015.4 |
| 20260507235602 | 52 | 117 | 0.9 | 3.5 | 0.00 | 0.00 | 0.00 | 70 | 1015.4 |
| 20260507235058 | 52 | 109 | 0.9 | 4.3 | 0.00 | 0.00 | 0.00 | 70 | 1015.4 |
| 20260507234557 | 52 | 136 | 1.7 | 5.2 | 0.00 | 0.00 | 0.00 | 70 | 1015.4 |
| 20260507234101 | 52 | 123 | 0.9 | 5.2 | 0.00 | 0.00 | 0.00 | 69 | 1015.4 |
| 20260507233558 | 52 | 126 | 1.7 | 5.2 | 0.00 | 0.00 | 0.00 | 68 | 1015.4 |
| 20260507233059 | 52 | 105 | 0.9 | 2.6 | 0.00 | 0.00 | 0.00 | 67 | 1015.3 |
| 20260507232600 | 52 | 80 | 0.9 | 2.6 | 0.00 | 0.00 | 0.00 | 67 | 1015.4 |
| 20260507232102 | 52 | 82 | 0.0 | 2.6 | 0.00 | 0.00 | 0.00 | 66 | 1015.5 |
| 20260507231602 | 52 | 139 | 0.9 | 2.6 | 0.00 | 0.00 | 0.00 | 66 | 1015.4 |
| 20260507231100 | 52 | 0 | 0.9 | 2.6 | 0.00 | 0.00 | 0.00 | 66 | 1015.4 |
| 20260507230602 | 52 | 128 | 0.0 | 3.5 | 0.00 | 0.00 | 0.00 | 67 | 1015.5 |
| 20260507230101 | 52 | 125 | 0.0 | 3.5 | 0.00 | 0.00 | 0.00 | 68 | 1015.5 |
| 20260507225559 | 51 | 0 | 0.9 | 3.5 | 0.00 | 0.00 | 0.00 | 69 | 1015.5 |
| 20260507225059 | 51 | 95 | 0.9 | 2.6 | 0.00 | 0.00 | 0.00 | 70 | 1015.5 |
| 20260507224616 | 51 | 96 | 0.9 | 2.6 | 0.00 | 0.00 | 0.00 | 72 | 1015.4 |
| 20260507224058 | 51 | 0 | 0.9 | 2.6 | 0.00 | 0.00 | 0.00 | 73 | 1015.4 |
| 20260507223558 | 51 | 0 | 0.0 | 2.6 | 0.00 | 0.00 | 0.00 | 75 | 1015.5 |
| 20260507223104 | 51 | 110 | 0.9 | 2.6 | 0.00 | 0.00 | 0.00 | 75 | 1015.5 |
| 20260507222559 | 51 | 82 | 0.0 | 1.7 | 0.00 | 0.00 | 0.00 | 77 | 1015.5 |
| 20260507222059 | 51 | 0 | 0.0 | 1.7 | 0.00 | 0.00 | 0.00 | 76 | 1015.6 |
| 20260507221600 | 52 | 0 | 0.0 | 1.7 | 0.00 | 0.00 | 0.00 | 74 | 1015.5 |
| 20260507221100 | 52 | 0 | 0.0 | 1.7 | 0.00 | 0.00 | 0.00 | 72 | 1015.5 |
| 20260507220558 | 52 | 0 | 0.0 | 1.7 | 0.00 | 0.00 | 0.00 | 73 | 1015.5 |
| 20260507220104 | 51 | 99 | 0.9 | 3.5 | 0.00 | 0.00 | 0.00 | 73 | 1015.6 |
| 20260507215559 | 51 | 115 | 0.9 | 3.5 | 0.00 | 0.00 | 0.00 | 73 | 1015.6 |
| 20260507215059 | 51 | 155 | 0.9 | 3.5 | 0.00 | 0.00 | 0.00 | 74 | 1015.6 |
| 20260507214606 | 51 | 92 | 0.0 | 3.5 | 0.00 | 0.00 | 0.00 | 76 | 1015.7 |
| 20260507214058 | 50 | 69 | 0.9 | 3.5 | 0.00 | 0.00 | 0.00 | 78 | 1015.6 |
| 20260507213558 | 50 | 0 | 0.0 | 0.0 | 0.00 | 0.00 | 0.00 | 81 | 1015.7 |
| 20260507213059 | 51 | 0 | 0.0 | 0.0 | 0.00 | 0.00 | 0.00 | 81 | 1015.7 |
| 20260507212558 | 51 | 0 | 0.0 | 0.0 | 0.00 | 0.00 | 0.00 | 79 | 1015.6 |
| 20260507212100 | 52 | 0 | 0.0 | 0.0 | 0.00 | 0.00 | 0.00 | 77 | 1015.6 |
| 20260507211629 | 52 | 0 | 0.0 | 1.7 | 0.00 | 0.00 | 0.00 | 78 | 1015.4 |
| 20260507211058 | 52 | 0 | 0.0 | 1.7 | 0.00 | 0.00 | 0.00 | 78 | 1015.5 |
| 20260507210559 | 52 | 0 | 0.0 | 1.7 | 0.00 | 0.00 | 0.00 | 78 | 1015.4 |
| 20260507210103 | 52 | 0 | 0.9 | 1.7 | 0.00 | 0.00 | 0.00 | 78 | 1015.4 |
| 20260507205602 | 52 | 57 | 0.9 | 1.7 | 0.00 | 0.00 | 0.00 | 78 | 1015.4 |
| 20260507205059 | 52 | 57 | 0.9 | 1.7 | 0.00 | 0.00 | 0.00 | 79 | 1015.4 |
| 20260507204606 | 52 | 57 | 0.9 | 1.7 | 0.00 | 0.00 | 0.00 | 79 | 1015.4 |
| 20260507204058 | 52 | 0 | 0.0 | 0.9 | 0.00 | 0.00 | 0.00 | 79 | 1015.4 |
| 20260507203559 | 52 | 0 | 0.0 | 0.9 | 0.00 | 0.00 | 0.00 | 79 | 1015.4 |
| 20260507203110 | 52 | 0 | 0.0 | 1.7 | 0.00 | 0.00 | 0.00 | 78 | 1015.2 |
| 20260507202558 | 53 | 0 | 0.0 | 1.7 | 0.00 | 0.00 | 0.00 | 77 | 1015.3 |
| 20260507202058 | 53 | 57 | 0.9 | 1.7 | 0.00 | 0.00 | 0.00 | 77 | 1015.2 |
| 20260507201613 | 53 | 57 | 0.9 | 1.7 | 0.00 | 0.00 | 0.00 | 77 | 1015.1 |
| 20260507201059 | 53 | 57 | 0.0 | 1.7 | 0.00 | 0.00 | 0.00 | 78 | 1015.1 |
| 20260507200601 | 53 | 0 | 0.0 | 0.9 | 0.00 | 0.00 | 0.00 | 78 | 1015.1 |
| 20260507200104 | 53 | 57 | 0.0 | 1.7 | 0.00 | 0.00 | 0.00 | 77 | 1015.0 |
| 20260507195604 | 54 | 0 | 0.0 | 1.7 | 0.00 | 0.00 | 0.00 | 77 | 1015.0 |
| 20260507195102 | 54 | 28 | 0.0 | 1.7 | 0.00 | 0.00 | 0.00 | 75 | 1015.0 |
| 20260507194558 | 54 | 0 | 0.0 | 1.7 | 0.00 | 0.00 | 0.00 | 76 | 1015.0 |
| 20260507194103 | 54 | 347 | 0.9 | 1.7 | 0.00 | 0.00 | 0.00 | 75 | 1015.0 |